Tanana, AK

10:31 PM AKST on January 19, 2018 (GMT -0900)
Calhoun Memorial

Weather History for PATA - September, 2013

Change the Weather History Date:

Sunday, September 29, 2013

  Actual Average Record
Temperature  
Mean Temperature 38 °F -  
Max Temperature 42 °F 43 °F 60 °F (2017)
Min Temperature 35 °F 27 °F 8 °F (1992)
Degree Days  
Heating Degree Days 27    
Moisture  
Dew Point 32 °F    
Average Humidity 82    
Maximum Humidity 92    
Minimum Humidity 76    
Precipitation  
Precipitation 0.05 in - - ()
Sea Level Pressure  
Sea Level Pressure 29.61 in    
Wind  
Wind Speed 6 mph (NNW)    
Max Wind Speed 12 mph    
Max Gust Speed 18 mph    
Visibility 10 miles    
Events Rain , Snow    
Averages and records for this station are not official NWS values.
T = Trace of Precipitation, MM = Missing Value Source: NWS Daily Summary

Daily Weather History Graph

Daily Weather History Graph

Search for Another Location

Airport or City:

Trip Planner

Search our weather history database for the weather conditions in past years. The results will help you decide how hot, cold, wet, or windy it might be!

Date:

Astronomy

Sep. 29, 2013 Rise Set
Actual Time 8:13 AM AKDT 7:41 PM AKDT
Civil Twilight 7:24 AM AKDT 8:31 PM AKDT
Nautical Twilight 6:25 AM AKDT 9:29 PM AKDT
Astronomical Twilight 5:20 AM AKDT 10:34 PM AKDT
Moon 1:21 AM AKDT (9/29) 6:11 PM AKDT (9/29)
Length of Visible Light 13h 06m
Length of Day
11h 28m
Waning Crescent, 26% of the Moon is Illuminated
Sep 29
Waning Crescent
Oct 4
New
Oct 11
First Quarter
Oct 18
Full
Oct 26
Last Quarter

Hourly Weather History & Observations

Time (AKDT) Temp. Windchill Dew Point Humidity Pressure Visibility Wind Dir Wind Speed Gust Speed Precip Events Conditions
12:52 AM 37.0 °F 33.3 °F 30.9 °F 79% 29.48 in 10.0 mi NNW 4.6 mph - 0.00 in   Overcast
1:52 AM 37.0 °F 32.4 °F 32.0 °F 82% 29.48 in 10.0 mi NNW 5.8 mph - 0.00 in Rain Light Rain
2:52 AM 36.0 °F 32.1 °F 33.1 °F 89% 29.49 in 8.0 mi NW 4.6 mph - 0.01 in Rain Light Rain
3:52 AM 36.0 °F 31.1 °F 32.0 °F 86% 29.50 in 10.0 mi Variable 5.8 mph - 0.00 in   Overcast
4:52 AM 36.0 °F 28.5 °F 30.9 °F 82% 29.52 in 10.0 mi NNW 10.4 mph - 0.00 in   Overcast
5:52 AM 36.0 °F 30.3 °F 30.9 °F 82% 29.52 in 10.0 mi NNW 6.9 mph - N/A   Mostly Cloudy
6:52 AM 36.0 °F 30.3 °F 30.0 °F 79% 29.54 in 10.0 mi North 6.9 mph - N/A   Overcast
7:52 AM 36.0 °F 33.3 °F 30.0 °F 79% 29.55 in 10.0 mi North 3.5 mph - N/A   Mostly Cloudy
8:52 AM 35.1 °F - 32.0 °F 89% 29.57 in 8.0 mi Calm Calm - 0.01 in Snow Light Snow
9:52 AM 35.1 °F 31.0 °F 32.0 °F 89% 29.58 in 7.0 mi NW 4.6 mph - 0.01 in Snow Light Snow
10:52 AM 35.1 °F - 33.1 °F 92% 29.60 in 8.0 mi Calm Calm - 0.01 in Rain Light Rain
11:52 AM 37.0 °F 33.3 °F 33.1 °F 86% 29.60 in 10.0 mi North 4.6 mph - 0.01 in   Overcast
12:52 PM 37.9 °F 33.5 °F 34.0 °F 86% 29.62 in 10.0 mi NNW 5.8 mph - N/A   Overcast
1:52 PM 39.9 °F 33.4 °F 34.0 °F 79% 29.62 in 10.0 mi North 10.4 mph 18.4 mph N/A   Overcast
2:52 PM 39.9 °F 33.9 °F 33.1 °F 77% 29.63 in 10.0 mi North 9.2 mph - N/A   Overcast
3:52 PM 41.0 °F 35.8 °F 34.0 °F 76% 29.64 in 10.0 mi North 8.1 mph - 0.00 in Rain Light Rain
4:24 PM 39.2 °F 32.0 °F 33.8 °F 81% 29.64 in 10.0 mi North 11.5 mph 18.4 mph 0.00 in Rain Light Rain
4:52 PM 39.9 °F 34.5 °F 33.1 °F 77% 29.66 in 10.0 mi North 8.1 mph - 0.00 in Rain Light Rain
5:45 PM 39.2 °F 35.9 °F 33.8 °F 81% 29.66 in 10.0 mi NNW 4.6 mph - N/A   Overcast
5:52 PM 39.9 °F 37.8 °F 34.0 °F 79% 29.68 in 10.0 mi WNW 3.5 mph - N/A   Overcast
6:52 PM 39.0 °F 34.0 °F 32.0 °F 76% 29.69 in 10.0 mi North 6.9 mph - N/A   Overcast
7:52 PM 37.9 °F 33.5 °F 32.0 °F 79% 29.70 in 10.0 mi North 5.8 mph - N/A   Overcast
8:52 PM 37.9 °F 32.7 °F 32.0 °F 79% 29.71 in 10.0 mi NNW 6.9 mph - N/A   Overcast
9:52 PM 37.0 °F 33.3 °F 32.0 °F 82% 29.72 in 10.0 mi North 4.6 mph - N/A   Overcast
10:52 PM 35.1 °F 30.1 °F 30.9 °F 85% 29.73 in 10.0 mi North 5.8 mph - N/A   Overcast
11:52 PM 35.1 °F - 30.0 °F 82% 29.74 in 10.0 mi Calm Calm - N/A   Overcast